カタログに戻る

GAOFEN-5

運用中科学SSO
NORAD 43461·PAYLOAD·🇨🇳 China

打ち上げ May 8, 2018 から Taiyuan Satellite Launch Center

Loading…

次のパス (今後24時間)

TLE

最新Source: Space-Track

元期: Sep 14, 2026, 09:22 UTC

1 43461U 18043A   26257.39076704  .00000214  00000-0  54108-4 0  9991
2 43461  98.4686 230.9016 0002389 132.4855 227.6547 14.60656590444717

AllMySatでGAOFEN-5をリアルタイム追跡

Download on the App Store